Location: Ashwell
(52.0333°N, 0.1500°W)
Time: 05:50:36
(UTC+00:00)

Daily predictions for brighter satellites

Satellite Brightness Start Highest point End
(mag) Time Altitude Azimuth Time Altitude Azimuth Time Altitude Azimuth
Landsat 5 4.1 00:01:25 10° N 00:05:03 42° WNW 00:07:02 22° SW
Cosmos 2227 Rocket 2.2 00:00:27 10° NNW 00:06:09 75° WSW 00:09:27 26° SSE
Gbstr 26 Del rocket 4.3 00:01:06 10° W 00:06:19 39° SSW 00:09:36 24° SSE
EO 1 Delta rocket 3.9 00:04:09 30° S 00:06:27 75° W 00:11:39 10° NNW
Cosmos 468 4.5 00:03:09 10° NNW 00:08:31 89° W 00:11:39 26° SSE
GEOS 3 Rocket 3.6 00:08:26 10° NE 00:13:44 82° SE 00:17:31 20° SW
Cosmos 1441 Rocket 2.8 00:20:22 43° S 00:21:23 84° E 00:24:52 10° NNE
Meteor 2-2 Rocket 4.2 00:18:55 10° NNW 00:24:35 86° ENE 00:28:00 25° SSE
Cosmos 2221 4.1 00:21:35 10° N 00:25:19 29° ENE 00:28:33 12° SE
Cosmos 1315 Rocket 2.9 00:25:11 10° NNW 00:28:58 58° W 00:30:17 36° SSW
Cosmos 1655 Rocket 4.2 00:25:42 24° SSW 00:29:47 71° WNW 00:36:11 10° N
Okean 1 4.3 00:26:26 10° N 00:29:55 36° ENE 00:32:02 19° SE
Cosmos 1125 Rocket 3.6 00:30:24 28° S 00:33:08 66° ESE 00:38:21 10° NNE
Meteor 1-26 Rocket 4.1 00:28:06 10° NNW 00:33:31 90° WNW 00:36:44 26° S
Geosat 4.0 00:28:58 10° NE 00:33:58 66° ESE 00:36:36 28° SSW
Cosmos 1933 4.2 00:31:53 10° NNW 00:35:26 34° W 00:36:43 27° SW
Nadezhda 1 Rocket 4.4 00:29:56 10° N 00:36:06 58° ENE 00:40:50 17° SSE
Cosmos 2058 Rocket 3.4 00:37:47 10° NNW 00:42:07 52° W 00:44:04 29° SSW
H-2A R/B 2.7 00:41:17 23° SE 00:43:29 57° ENE 00:47:21 10° N
BlueWalker 3 4.1 00:42:12 10° W 00:42:46 12° WSW 00:42:46 12° WSW
Cosmos 614 Rocket 3.9 00:40:56 10° NNW 00:45:59 73° WSW 00:48:55 25° SSE
ATLAS 5 CENTAUR R/B 2.9 00:45:14 10° NW 00:49:09 41° NE 00:53:55 10° ESE
BREEZE-M DEB (TANK) 3.4 00:48:26 10° W 00:50:49 26° WSW 00:50:49 26° WSW
CZ-4C R/B 4.2 00:48:27 10° WNW 00:53:05 31° N 00:58:52 10° NE
Cosmos 2263 Rocket 2.3 00:49:42 10° NW 00:55:16 61° WSW 00:58:41 23° S
CZ-2C R/B 2.9 00:56:35 10° NNE 01:01:22 72° ESE 01:04:01 26° S
Cosmos 2082 3.6 00:56:13 10° NNW 01:01:55 81° WSW 01:06:25 17° SSE
Cosmos 192 4.4 01:00:29 27° S 01:03:08 68° ESE 01:08:03 10° NNE
USA 32 4.1 01:00:07 24° S 01:03:20 71° E 01:08:33 10° N
Cosmos 2369 4.1 01:01:32 24° S 01:04:48 53° ESE 01:10:17 10° NE
Cosmos 1602 Rocket 3.7 01:07:34 26° S 01:09:54 65° E 01:14:14 10° NNE
Cosmos 2298 Rocket 4.3 01:07:44 24° S 01:10:51 57° ESE 01:16:04 10° NNE
Cosmos 1758 Rocket 3.5 01:09:37 28° SSW 01:11:57 86° WNW 01:16:26 10° N
Cosmos 1626 Rocket 3.6 01:11:27 27° SSW 01:13:44 68° WNW 01:18:09 10° N
Cosmos 2297 Rocket 4.2 01:14:23 10° WNW 01:16:21 12° W 01:18:18 10° WSW
Cosmos 2219 3.4 01:11:46 10° NW 01:17:17 51° WSW 01:20:47 22° S
SL-16 R/B 3.6 01:13:38 14° SSE 01:17:25 28° ESE 01:22:09 10° NE
USA 290 3.0 01:15:52 10° NW 01:18:55 35° WSW 01:19:33 32° SW
Cosmos 2333 Rocket 4.1 01:16:00 10° SE 01:19:55 19° E 01:23:48 10° ENE
BREEZE M DEB (TANK) 2.2 01:21:29 38° SW 01:22:02 46° S 01:25:31 10° ESE
BREEZE-M DEB 4.5 01:03:59 10° W 01:22:37 75° S 01:27:03 10° E
Spot 2 3.8 01:20:18 22° SSE 01:22:48 87° WSW 01:26:49 10° NNW
ATLAS 2AS CENTAUR R/B 2.9 01:17:09 10° NW 01:23:39 50° WSW 01:29:12 14° SSE
Cosmos 921 Rocket 3.1 01:24:13 10° NNW 01:28:34 61° WSW 01:31:10 23° S
Cosmos 1980 Rocket 2.3 01:25:56 20° SW 01:29:54 72° WNW 01:35:33 10° NNE
Cosmos 1743 3.9 01:28:38 16° SE 01:30:43 29° E 01:33:41 10° NNE
USA 215 4.3 01:30:25 20° SSW 01:32:28 23° SW 01:37:27 10° WNW
NPP 4.4 01:28:04 10° NNE 01:33:17 46° E 01:37:31 15° SSE
Cosmos 1697 Rocket 3.8 01:30:08 10° WSW 01:35:21 39° NW 01:40:40 10° NNE
Lacrosse 5 rocket 2.3 01:33:55 10° W 01:37:05 24° SW 01:37:12 24° SW
Cosmos 2151 2.9 01:35:22 24° S 01:37:51 83° E 01:42:00 10° NNE
Cosmos 1140 Rocket 3.9 01:35:17 10° NNW 01:40:26 63° ENE 01:45:34 10° SE
CZ-2C R/B 3.4 01:37:53 21° SSW 01:41:10 39° W 01:46:26 10° NNW
Resurs 1-4 Rocket 3.5 01:38:34 10° NNE 01:43:15 31° E 01:47:56 10° SSE
GENESIS II 3.3 01:44:58 31° SW 01:46:04 75° NW 01:48:49 10° NE
Cosmos 2227 Rocket 4.0 01:46:17 10° WNW 01:49:12 14° W 01:51:13 12° WSW
Cosmos 1076 Rocket 4.2 01:46:03 15° SSE 01:49:23 47° E 01:53:28 10° NNE
Landsat 4 4.0 01:49:58 26° SW 01:50:35 29° W 01:53:05 10° NW
Cosmos 1844 Rocket 2.7 01:45:35 10° NNW 01:51:16 87° ENE 01:56:52 10° SSE
Cosmos 1238 Rocket 3.6 01:48:13 10° NNW 01:53:20 57° W 01:56:48 18° SSW
Cosmos 407 Rocket 4.4 01:50:11 10° NNW 01:55:18 50° ENE 02:00:25 10° SE
Cosmos 2227 4.2 01:49:41 10° NNW 01:55:22 74° WSW 02:01:03 10° SSE
Cosmos 1844 3.8 01:49:51 10° NNW 01:55:35 86° ENE 02:01:21 10° SSE
CZ-2D R/B 3.3 01:52:06 10° NNE 01:56:54 35° E 02:01:38 10° SSE
IDEFIX/ARIANE 42P 2.6 01:52:52 10° NNE 01:58:05 82° ESE 02:02:09 17° SSW
Meteor 1-19 Rocket 4.2 01:54:01 10° NNW 01:59:30 69° W 02:04:33 13° S
H-2A R/B 2.8 01:57:41 10° NNE 02:01:47 46° E 02:05:29 13° S
Cosmos 2221 3.3 01:58:36 10° NNW 02:02:29 35° W 02:04:55 19° SW
Cosmos 2237 4.3 01:58:13 18° SSW 02:02:33 79° ESE 02:08:16 10° NNE
Cosmos 1953 Rocket 3.6 02:04:16 16° S 02:07:43 75° E 02:12:03 10° NNE
Cosmos 2360 Rocket 3.4 02:03:06 10° S 02:08:05 34° ESE 02:13:07 10° NE
SeaSat 1 2.4 02:04:02 10° SSE 02:08:56 88° WSW 02:13:53 10° NNW
Cosmos 1346 Rocket 2.6 02:09:59 19° SSW 02:12:32 79° WNW 02:16:15 10° N
Cosmos 2278 3.9 02:08:06 15° SSW 02:12:41 65° ESE 02:18:18 10° NE
Cosmos 1733 3.0 02:14:22 15° S 02:16:38 55° E 02:19:34 10° NNE
Cosmos 1269 Rocket 4.2 02:12:41 10° NNW 02:17:52 55° WSW 02:23:00 10° S
H-2A R/B 4.1 02:16:38 13° WSW 02:18:11 16° W 02:20:40 10° NW
Molniya-1 4.3 02:19:20 16° SSW 02:22:06 64° SE 02:30:53 10° NE
Cosmos 2219 Rocket 3.8 02:18:19 10° SSE 02:22:54 27° ESE 02:27:29 10° NE
H-2A R/B 4.3 02:21:09 10° NE 02:24:25 17° E 02:27:38 10° SE
Cosmos 1825 Rocket 4.1 02:22:59 16° SW 02:26:17 46° WNW 02:30:32 10° N
Cosmos 2074 Rocket 4.3 02:20:13 10° S 02:26:20 65° E 02:32:31 10° NNE
CENTAUR R/B 2.8 02:24:36 14° SSW 02:29:30 57° SE 02:36:27 10° NE
ADEOS II 2.9 02:24:47 10° NNE 02:29:51 47° E 02:34:54 10° S
Cosmos 2322 Rocket 2.7 02:24:50 11° S 02:30:03 55° ESE 02:35:33 10° NE
ATLAS 5 CENTAUR R/B 2.0 02:27:49 10° NW 02:32:05 48° SW 02:37:19 10° SSE
ALOS 3.1 02:27:58 10° NNE 02:32:25 46° E 02:36:48 10° S
MOZ.5/SAFIR/RUBIN 5/SL-8 4.4 02:30:29 13° SSW 02:34:23 39° W 02:38:48 10° NNW
Meteor 1-18 Rocket 4.5 02:32:12 10° N 02:37:46 73° ENE 02:43:18 10° SSE
Cosmos 2263 Rocket 4.1 02:36:33 10° W 02:37:59 11° W 02:39:26 10° WSW
Cosmos 2251 Rocket 4.0 02:32:44 10° NNW 02:38:02 67° ENE 02:43:16 10° SE
Meteor 1-25 Rocket 4.4 02:36:57 12° SSW 02:42:10 65° WNW 02:47:54 10° N
NOSS 3-2 (A) 4.3 02:38:04 10° S 02:42:38 34° ESE 02:47:57 10° NE
Envisat 3.7 02:38:40 10° NNE 02:43:39 52° E 02:48:35 10° S
DMSP B5D2-2 4.4 02:38:59 10° SSE 02:44:11 73° ENE 02:49:24 10° NNW
Meteor 1-27 Rocket 4.2 02:39:45 10° NNW 02:45:23 47° W 02:50:59 10° SSW
SL-23 DEB 3.4 02:42:35 10° WSW 02:45:38 63° SSE 02:49:17 10° E
SAR-Lupe-3 4.3 02:44:50 10° SSE 02:47:46 70° ENE 02:50:43 10° N
MSX 4.3 02:42:28 10° N 02:47:59 50° WNW 02:53:28 10° SW
Cosmos 2278 Rocket 4.5 02:45:03 10° NNW 02:50:03 30° NE 02:55:01 10° ESE
Cosmos 1190 Rocket 4.4 02:46:32 10° NNW 02:51:44 68° ENE 02:56:53 10° SE
Cosmos 2181 Rocket 4.3 02:46:31 10° NNW 02:52:23 48° W 02:58:13 10° SSW
NOAA 11 4.4 02:48:18 10° NNE 02:53:46 74° ESE 02:59:10 10° S
USA 276 2.7 02:51:56 13° SW 02:53:58 29° SSE 02:56:14 10° E
FENGYUN 3A 3.9 02:49:23 10° N 02:54:43 59° WNW 03:00:01 10° SSW
SL-16 R/B 2.9 02:50:39 10° SSE 02:56:54 75° ENE 03:03:11 10° NNW
Cosmos 1842 Rocket 4.3 02:55:25 10° NNW 02:59:26 35° W 03:03:24 10° SSW
SL-16 R/B 2.5 02:55:31 10° SW 03:01:08 63° NW 03:06:47 10° NNE
Uosat 12 SS-18 rocket 4.4 02:57:42 10° SSW 03:01:59 63° SE 03:06:52 10° NE
Cosmos 1707 3.2 02:59:21 10° NNW 03:02:18 31° W 03:05:14 10° SSW
Cosmos 2333 Rocket 2.3 02:57:45 10° SSW 03:03:28 87° WNW 03:09:12 10° NNE
Cosmos 1805 4.3 03:00:25 10° SSE 03:03:38 38° E 03:06:53 10° NNE
Cosmos 1743 4.0 03:02:10 10° WSW 03:04:48 21° WNW 03:07:27 10° NNW
Meteor 2-4 Rocket 4.0 03:03:20 10° NNW 03:08:27 46° W 03:13:30 10° SSW
Cosmos 44 Rocket 3.4 03:03:56 10° SW 03:08:36 71° NW 03:13:24 10° NE
ATLAS 2AS CENTAUR R/B 4.4 03:11:36 10° W 03:12:57 11° WSW 03:14:18 10° WSW
Meteor 1-5 Rocket 4.5 03:08:43 10° SSW 03:14:20 57° WNW 03:19:48 10° N
Cosmos 1980 Rocket 4.1 03:10:40 10° W 03:14:54 21° NNW 03:19:10 10° NNE
Cosmos 1066 Rocket 4.2 03:10:54 10° NNW 03:16:12 60° W 03:21:26 10° S
Cosmos 1607 4.5 03:11:58 10° NW 03:18:07 66° NE 03:24:15 10° SE
CZ-2C R/B 4.2 03:15:44 10° NNE 03:20:12 31° E 03:24:43 10° SSE
